Regional Weather Roundup
Issued by NWS

Home | Current Version | Previous Version | Graphics & Text | Print | Product List | Glossary On
Versions: 1 2 3 4 5 6 7 8 9 10 11 12 13 14 15 16 17 18 19 20 21 22 23 24 25 26 27 28 29 30 31 32 33 34 35 36 37 38 39 40 41 42 43 44 45 46 47 48 49 50
000
ASUS45 KBOI 302310
RWRID

IDAHO REGIONAL WEATHER ROUNDUP
NATIONAL WEATHER SERVICE BOISE ID
500 PM MDT SUN AUG 30 2015

NOTE: "FAIR" INDICATES FEW OR NO CLOUDS BELOW 12000 FEET
WITH NO SIGNIFICANT WEATHER AND/OR OBSTRUCTIONS TO VISIBILITY

IDZ012-014-310000-
SOUTHWEST IDAHO


CITY           SKY/WX    TMP DP  RH WIND       PRES   REMARKS
BOISE          MOSUNNY   79  41  25 NW13      29.96S
CALDWELL       MOSUNNY   79  37  22 NW5       29.95F
MOUNTAIN HOME  SUNNY     83  27  12 NW16G25   29.92F
$$

IDZ016-017-310000-
SOUTHCENTRAL IDAHO


CITY           SKY/WX    TMP DP  RH WIND       PRES   REMARKS
BURLEY         MOSUNNY   75  36  24 W10       29.97S
JEROME         SUNNY     77  33  20 W10       29.98F
TWIN FALLS     SUNNY     79  33  19 N7        29.98F
$$

IDZ019>023-310000-
SOUTHEAST IDAHO


CITY           SKY/WX    TMP DP  RH WIND       PRES   REMARKS
IDAHO FALLS    MOSUNNY   77  33  20 SW15G26   29.97F
POCATELLO      SUNNY     80  38  22 W20       29.97F
REXBURG        MOSUNNY   76  27  16 SW16G25   29.97F
$$

IDZ006-010-011-018-031-032-310000-
CENTRAL IDAHO MOUNTAINS


CITY           SKY/WX    TMP DP  RH WIND       PRES   REMARKS
MCCALL         CLOUDY    65  36  34 SW14G24   30.02F
HAILEY         MOSUNNY   72  27  18 S12G23    30.05S
STANLEY          N/A     63  24  22 VRB3G18   30.07F
SALMON         PTSUNNY   75  28  17 W23G32    29.82R
CHALLIS        PTSUNNY   75  20  12 W15G28    29.95R
$$

IDZ002-004-006-007-026-310000-
NORTHERN IDAHO


CITY           SKY/WX    TMP DP  RH WIND       PRES   REMARKS
LEWISTON       LGT RAIN  65  53  65 SE7       29.96S
LOWELL           N/A     58  56  93 CALM      30.03R
COEUR D`ALENE  CLOUDY    61  55  82 S13G20    29.92F
MULLAN PASS    LGT RAIN  41  40  96 SW9G20    30.01R FOG
$$


USA.gov is the U.S. government's official web portal to all federal, state and local government web resources and services.